Regional Weather Roundup
Issued by NWS

Home | Current Version | Previous Version | Text Only | Print | Product List | Glossary Off
Versions: 1 2 3 4 5 6 7 8 9 10 11 12 13 14 15 16 17 18 19 20 21 22 23 24 25 26 27 28 29 30 31 32 33 34 35 36 37 38 39 40 41 42 43 44 45 46 47 48 49 50

000
ASUS43 KMKX 221700
RWRWI

WISCONSIN REGIONAL WEATHER ROUNDUP
NATIONAL WEATHER SERVICE MILWAUKEE/SULLIVAN WI
1200 PM CDT MON SEP 22 2014

NOTE: "FAIR" INDICATES FEW OR NO CLOUDS BELOW 12,000 FEET WITH NO
SIGNIFICANT WEATHER AND/OR OBSTRUCTIONS TO VISIBILITY.

WIZ001-002-006>008-014>016-023>028-221800-
NORTHWEST WISCONSIN

CITY           SKY/WX    TMP DP  RH WIND       PRES   REMARKS
SUPERIOR ARPT  SUNNY     65  53  65 SW7       30.19F
ASHLAND        SUNNY     65  51  60 W9        30.19F
HAYWARD        SUNNY     61  49  64 W8        30.22F
SIREN          SUNNY     62  51  66 W8        30.24F
RICE LAKE      MOSUNNY   60  50  68 W9        30.26S
LADYSMITH      CLOUDY    57  52  85 W6        30.26F
EAU CLAIRE     PTSUNNY   63  50  63 NW9       30.25F
MENOMONIE      SUNNY     63  50  63 W9        30.26F
NEW RICHMOND   SUNNY     63  50  63 W5        30.26F
OSCEOLA        SUNNY     63  53  68 W6        30.28F
$$

WIZ003>005-009-010-017-018-221800-
NORTH CENTRAL WISCONSIN

CITY           SKY/WX    TMP DP  RH WIND       PRES   REMARKS
WOODRUFF       PTSUNNY   59  49  68 W10G18    30.20F
RHINELANDER    CLOUDY    62  48  60 W13       30.21F
EAGLE RIVER    CLOUDY    60  46  60 W13       30.18S
LAND O LAKES   PTSUNNY   60  47  63 W9        30.19S
PHILLIPS       CLOUDY    58  50  72 W7        30.22F
TOMAHAWK       CLOUDY    59  46  62 W12G18    30.23S
MEDFORD        CLOUDY    58  49  71 W7        30.24F
MERRILL        CLOUDY    60  48  62 W9        30.22F
$$

WIZ029-030-035-036-043>047-221800-
CENTRAL WISCONSIN

CITY           SKY/WX    TMP DP  RH WIND       PRES   REMARKS
WAUSAU         CLOUDY    62  46  55 W14       30.22F
MOSINEE        CLOUDY   N/A  48   0 W10       30.25F
MARSHFIELD     CLOUDY    63  49  60 W9        30.24F
STEVENS POINT  MOSUNNY   60  45  57 CALM      30.25S
WAUPACA        SUNNY     66  46  47 W8        30.25S
WAUTOMA        NOT AVBL
WISC RAPIDS    SUNNY     65  46  50 W10       30.26F
CAMP DOUGLAS   NOT AVBL
$$

WIZ011>013-019>022-031-037>040-048>050-221800-
NORTHEAST WISCONSIN

CITY           SKY/WX    TMP DP  RH WIND       PRES   REMARKS
ANTIGO         PTSUNNY   60  47  62 W14       30.22S
STURGEON BAY   CLOUDY    57  46  67 W9        30.22S
GREEN BAY      SUNNY     64  47  53 VRB7      30.23S
MANITOWOC      NOT AVBL
APPLETON       MOSUNNY   61  46  59 W9        30.24F
CLINTONVILLE   SUNNY     63  45  51 W9        30.23S
OSHKOSH        SUNNY     62  47  57 W9        30.25S
$$

WIZ032>034-041-042-053>061-221800-
SOUTHWEST WISCONSIN

CITY           SKY/WX    TMP DP  RH WIND       PRES   REMARKS
LA CROSSE      SUNNY     67  49  52 SW7       30.26F
SPARTA         SUNNY     62  48  59 W7        30.28S
VIROQUA        FAIR      63  47  56 W9        30.29S
BOSCOBEL       SUNNY     65  48  54 SW8       30.29F
PRAIRIE DU CHI SUNNY     62  46  56 SW3       30.30F
PLATTEVILLE    FAIR      62  44  51 SW7       30.31F
$$

WIZ056-057-062-063-064-067-068-221800-
SOUTH CENTRAL WISCONSIN

CITY           SKY/WX    TMP DP  RH WIND       PRES   REMARKS
BARABOO/DELLS  SUNNY     62  43  50 W7        30.28S
LONE ROCK      NOT AVBL
WATERTOWN      SUNNY     62  43  50 W6        30.27S
MADISON        SUNNY     63  43  48 VRB7      30.28S
MIDDLETON      FAIR      64  44  49 W10       30.28F
MONROE         SUNNY     61  41  48 W3        30.29F
JANESVILLE     SUNNY     63  43  48 W6        30.28F
$$

WIZ051-052-058>065-066-070>072-221800-
SOUTHEAST WISCONSIN

CITY           SKY/WX    TMP DP  RH WIND       PRES   REMARKS
MILWAUKEE      SUNNY     62  42  47 VRB6      30.27F
WAUKESHA       SUNNY     59  43  55 W7        30.29S
MILWAUKEE/TIMM SUNNY     61  41  48 W7        30.27S
RACINE         SUNNY     61  44  53 VRB5      30.29F
BURLINGTON     SUNNY     59  41  51 NW6       30.28S
KENOSHA        SUNNY     61  44  53 MISG      30.28F
FOND DU LAC    SUNNY     63  44  50 W12       30.25F
SHEBOYGAN      SUNNY     63  43  48 W10G18    30.25S
WEST BEND      SUNNY     61  41  48 W10       30.26S
JUNEAU         SUNNY     60  45  57 W8        30.28S
$$

LSZ147-162-221800-
LAKE SUPERIOR

STATION/POSITION TIME  TEMP    WIND        PRES    WAVE
                       AIR SEA DIR/SP/G            HT/PER
                 (UTC) (F)     (DEG/KT/KT) (MB)    (FT/S)
W MID LAKE BUOY  1550   50 47  250/ 14/ 16 1021.0F   1/ 3
DEVILS ISLAND    1600   52     230/ 14/ 17 1022.2S
PORT WING        1640   60     270/  8/ 11 1022.4F
SAXON HARBOR     1600   62     270/  3/  8 1022.7S
$$

LMZ867-665-643>646-221800-
LAKE MICHIGAN

STATION/POSITION TIME  TEMP    WIND        PRES    WAVE
                       AIR SEA DIR/SP/G            HT/PER
                 (UTC) (F)     (DEG/KT/KT) (MB)    (FT/S)
N MID LAKE BUOY  1550   52 57  240/ 14/ 16 1022.4R   1/ 3
NORTHPORT PIER   1600   56     220/  2/  5 1022.4S
KEWAUNEE LAKESHO 1600   57     290/  5/  8 1022.4S
SHEBOYGAN LAKESH 1600   57 53  290/  2/  5 1024.8S
PORT WASHINGTON  1600   62     310/  7/ 12 1025.1
ATWATER BUOY     1600   58     280/  6/  6 1025.9R
MILWAUKEE LAKESH 1600   57     260/  7/ 10   N/A
S MID LAKE BUOY  1550   54 62  300/  8/ 10 1025.6R   3/ 7
KENOSHA   LAKESH 1600   56     280/  6/  9 1025.4R
$$

TC  - TEMPERATURE IN CELSIUS
VSB - VISIBILITY IN STATUTE MILES
WCI - WIND CHILL INDEX
HX  - HEAT INDEX



USA.gov is the U.S. government's official web portal to all federal, state and local government web resources and services.